Date String (YYYY-MM-DD hh:mm:ss) UTC,Instrument flags,absolute air pressure of the measurement (hPa),sample flow rate (lpm),inlet stack bypass flow (lpm),air temperature of the measurement (°C),ambient temperature measured by the external sensor (°C),aerosol sample conditioner tube jacket temperature (°C),OPC LED temperature (°C),internal box temperature (°C),relative humidity of the measurement (%),span deviation,mass concentration of particles derived from Lorenz-Mie calculation of OPC scattering (μg/m³),mass concentration of particles derived from Lorenz-Mie calculation of OPC scattering (μg/m³),mass concentration of particles derived from Lorenz-Mie calculation of OPC scattering (μg/m³)
DateTimeUTC,F1_M11,P_M11,Q1_M11,Q2_M11,T1_M11,T2_M11,T3_M11,T4_M11,T5_M11,U1_M11,ZSPAN_M11,X0_M11,X2_M11,X1_M11
2024-03-14 16:00:00,SystemResetWarning,0831.3,5.00,000.00,018.7,018.5,000.0,027.1,020.6,23.7,0000.0,0008.45,0004.31,0003.93
2024-03-14 16:01:00,SystemResetWarning,0831.3,5.00,000.00,018.7,018.3,000.0,027.1,020.4,23.8,0000.0,0008.42,0004.34,0003.94
2024-03-14 16:02:00,SystemResetWarning,0831.3,5.00,000.00,018.6,018.0,000.0,027.1,020.3,23.9,0000.0,0007.80,0004.38,0003.95
2024-03-14 16:03:00,SystemResetWarning,0831.3,4.99,000.00,018.5,017.8,000.0,027.1,020.2,24.0,0000.0,0007.49,0004.38,0003.96
2024-03-14 16:04:00,SystemResetWarning,0831.3,5.01,000.00,018.5,017.7,000.0,027.1,020.1,24.1,0000.0,0007.55,0004.43,0003.97
2024-03-14 16:05:00,SystemResetWarning,0831.3,5.01,000.00,018.4,017.6,000.0,027.1,020.0,24.2,0000.0,0007.74,0004.49,0003.99
2024-03-14 16:06:00,SystemResetWarning,0831.3,5.00,000.00,018.4,017.4,000.0,027.1,020.0,24.3,0000.0,0007.88,0004.53,0004.01
2024-03-14 16:07:00,SystemResetWarning,0831.4,4.98,000.00,018.3,017.3,000.0,027.1,020.0,24.4,0000.0,0007.96,0004.56,0004.02
2024-03-14 16:08:00,SystemResetWarning,0831.4,5.00,000.00,018.3,017.2,000.0,027.1,020.0,24.8,0000.0,0008.08,0004.59,0004.03
2024-03-14 16:09:00,SystemResetWarning,0831.4,5.00,000.00,018.3,017.1,000.0,027.1,020.0,25.8,0000.0,0008.07,0004.59,0004.06
2024-03-14 16:10:00,SystemResetWarning,0831.4,5.01,000.00,018.3,017.1,000.0,027.1,020.0,25.2,0000.0,0008.95,0004.63,0004.08
2024-03-14 16:11:00,SystemResetWarning,0831.4,5.00,000.00,018.3,017.0,000.0,027.1,020.0,24.9,0000.0,0008.99,0004.66,0004.11
2024-03-14 16:12:00,SystemResetWarning,0831.4,5.00,000.00,018.2,017.0,000.0,027.1,020.0,24.9,0000.0,0009.12,0004.71,0004.14
2024-03-14 16:13:00,SystemResetWarning,0831.4,4.99,000.00,018.2,016.9,000.0,027.1,020.0,25.0,0000.0,0009.53,0004.72,0004.16
2024-03-14 16:14:00,SystemResetWarning,0831.5,4.99,000.00,018.2,016.9,000.0,027.1,020.0,25.1,0000.0,0010.61,0004.77,0004.19
2024-03-14 16:15:00,SystemResetWarning,0831.4,5.00,000.00,018.2,016.9,000.0,027.1,020.0,25.1,0000.0,0011.09,0004.83,0004.22
2024-03-14 16:16:00,SystemResetWarning,0831.5,5.00,000.00,018.2,016.8,000.0,027.1,020.0,25.1,0000.0,0013.03,0004.86,0004.25
2024-03-14 16:17:00,SystemResetWarning,0831.5,5.00,000.00,018.2,017.0,000.0,027.1,020.1,25.1,0000.0,0014.73,0004.90,0004.27
2024-03-14 16:18:00,SystemResetWarning,0831.5,5.01,000.00,018.4,018.0,000.0,027.1,020.5,24.9,0000.0,0014.97,0004.93,0004.30
2024-03-14 16:19:00,SystemResetWarning,0831.6,4.99,000.00,018.6,019.0,000.0,027.2,021.0,24.5,0000.0,0015.12,0004.99,0004.34
2024-03-14 16:20:00,SystemResetWarning,0831.6,4.99,000.00,018.8,018.9,000.0,027.2,021.0,24.3,0000.0,0016.39,0005.07,0004.37
2024-03-14 16:21:00,SystemResetWarning,0831.6,5.00,000.00,018.7,018.6,000.0,027.1,020.7,24.3,0000.0,0016.97,0005.14,0004.40
2024-03-14 16:22:00,SystemResetWarning,0831.6,5.00,000.00,018.7,018.3,000.0,027.1,020.5,24.3,0000.0,0017.49,0005.16,0004.41
2024-03-14 16:23:00,SystemResetWarning,0831.6,5.00,000.00,018.6,018.1,000.0,027.1,020.3,24.5,0000.0,0017.85,0005.22,0004.44
2024-03-14 16:24:00,SystemResetWarning,0831.6,4.99,000.00,018.6,017.8,000.0,027.1,020.2,24.5,0000.0,0017.84,0005.29,0004.46
2024-03-14 16:25:00,SystemResetWarning,0831.6,5.00,000.00,018.5,017.7,000.0,027.1,020.1,24.6,0000.0,0017.37,0005.34,0004.50
2024-03-14 16:26:00,SystemResetWarning,0831.6,5.00,000.00,018.4,017.5,000.0,027.1,020.0,24.7,0000.0,0018.09,0005.37,0004.53
2024-03-14 16:27:00,SystemResetWarning,0831.6,5.00,000.00,018.4,017.4,000.0,027.1,020.0,24.7,0000.0,0016.42,0005.43,0004.56
2024-03-14 16:28:00,SystemResetWarning,0831.6,5.00,000.00,018.4,017.2,000.0,027.1,020.0,24.7,0000.0,0015.48,0005.47,0004.60
2024-03-14 16:29:00,SystemResetWarning,0831.6,5.00,000.00,018.3,017.1,000.0,027.1,020.0,24.7,0000.0,0015.33,0005.51,0004.63
2024-03-14 16:30:00,SystemResetWarning,0831.6,5.00,000.00,018.3,017.0,000.0,027.1,020.0,24.7,0000.0,0015.33,0005.53,0004.66
2024-03-14 16:31:00,SystemResetWarning,0831.6,5.00,000.00,018.3,017.0,000.0,027.1,020.0,24.8,0000.0,0014.06,0005.49,0004.67
2024-03-14 16:32:00,SystemResetWarning,0831.7,5.00,000.00,018.3,016.9,000.0,027.1,020.0,24.8,0000.0,0013.47,0005.48,0004.69
2024-03-14 16:33:00,SystemResetWarning,0831.7,5.00,000.00,018.2,016.9,000.0,027.1,020.0,24.9,0000.0,0013.06,0005.50,0004.71
2024-03-14 16:34:00,SystemResetWarning,0831.7,5.00,000.00,018.2,016.8,000.0,027.1,020.0,24.9,0000.0,0013.02,0005.46,0004.73
2024-03-14 16:35:00,SystemResetWarning,0831.7,5.01,000.00,018.3,017.3,000.0,027.1,020.2,24.9,0000.0,0013.08,0005.42,0004.73
2024-03-14 16:36:00,SystemResetWarning,0831.7,5.01,000.00,018.5,018.4,000.0,027.2,020.8,24.6,0000.0,0012.81,0005.41,0004.72
2024-03-14 16:37:00,SystemResetWarning,0831.7,4.98,000.00,018.8,019.0,000.0,027.2,021.1,24.2,0000.0,0011.55,0005.37,0004.72
2024-03-14 16:38:00,SystemResetWarning,0831.7,4.99,000.00,018.8,018.8,000.0,027.2,020.9,24.2,0000.0,0011.23,0005.31,0004.72
2024-03-14 16:39:00,SystemResetWarning,0831.7,5.00,000.00,018.8,018.6,000.0,027.2,020.7,24.2,0000.0,0010.55,0005.31,0004.72
2024-03-14 16:40:00,SystemResetWarning,0831.7,5.00,000.00,018.7,018.3,000.0,027.1,020.5,24.2,0000.0,0010.47,0005.29,0004.72
2024-03-14 16:41:00,SystemResetWarning,0831.7,5.00,000.00,018.6,018.0,000.0,027.1,020.3,24.3,0000.0,0010.44,0005.25,0004.71
2024-03-14 16:42:00,SystemResetWarning,0831.7,5.00,000.00,018.6,017.9,000.0,027.1,020.2,24.5,0000.0,0010.39,0005.23,0004.71
2024-03-14 16:43:00,SystemResetWarning,0831.7,5.00,000.00,018.5,017.6,000.0,027.1,020.1,24.6,0000.0,0010.16,0005.25,0004.71
2024-03-14 16:44:00,SystemResetWarning,0831.9,5.00,000.00,018.4,017.5,000.0,027.1,020.0,24.7,0000.0,0009.58,0005.22,0004.72
2024-03-14 16:45:00,SystemResetWarning,0831.9,5.00,000.00,018.4,017.4,000.0,027.1,020.0,24.8,0000.0,0009.50,0005.20,0004.72
2024-03-14 16:46:00,SystemResetWarning,0831.9,5.01,000.00,018.4,017.3,000.0,027.1,020.0,24.9,0000.0,0008.96,0005.18,0004.72
2024-03-14 16:47:00,SystemResetWarning,0831.9,5.00,000.00,018.3,017.2,000.0,027.1,020.0,25.0,0000.0,0009.16,0005.20,0004.73
2024-03-14 16:48:00,SystemResetWarning,0831.9,5.00,000.00,018.3,017.2,000.0,027.1,020.0,25.1,0000.4,0009.39,0005.22,0004.74
2024-03-14 16:49:00,SystemResetWarning,0831.9,5.00,000.00,018.3,017.1,000.0,027.1,020.0,25.1,0001.4,0009.65,0005.28,0004.75
2024-03-14 16:50:00,SystemResetWarning,0831.9,5.00,000.00,018.3,017.1,000.0,027.1,020.0,25.2,0000.0,0010.11,0005.28,0004.75
2024-03-14 16:51:00,SystemResetWarning,0831.9,4.99,000.00,018.3,017.0,000.0,027.1,020.0,25.3,0000.0,0010.22,0005.28,0004.75
2024-03-14 16:52:00,SystemResetWarning,0832.0,5.00,000.00,018.3,017.0,000.0,027.1,020.0,25.3,0000.0,0010.10,0005.30,0004.75
2024-03-14 16:53:00,SystemResetWarning,0831.9,5.00,000.00,018.3,017.0,000.0,027.1,020.0,25.4,0000.0,0010.06,0005.30,0004.75
2024-03-14 16:54:00,SystemResetWarning,0831.9,5.00,000.00,018.2,017.0,000.0,027.1,020.0,25.5,0000.3,0010.07,0005.32,0004.77
2024-03-14 16:55:00,SystemResetWarning,0832.0,5.00,000.00,018.2,017.0,000.0,027.1,020.0,25.5,0000.4,0009.90,0005.29,0004.76
2024-03-14 16:56:00,SystemResetWarning,0831.9,5.01,000.00,018.2,016.9,000.0,027.1,020.0,25.6,0000.0,0009.85,0005.28,0004.76
2024-03-14 16:57:00,SystemResetWarning,0831.9,5.00,000.00,018.2,016.9,000.0,027.1,020.0,25.6,0000.0,0009.98,0005.30,0004.77
2024-03-14 16:58:00,SystemResetWarning,0831.9,5.00,000.00,018.2,017.0,000.0,027.1,020.1,25.7,0000.0,0009.78,0005.30,0004.78
2024-03-14 16:59:00,SystemResetWarning,0832.0,5.01,000.00,018.3,017.9,000.0,027.1,020.5,25.5,0000.0,0009.59,0005.30,0004.79
